Year,Month,Day,Hour,Minute,Value (Times are PST for temperature in C)
2011,09,10,00,00,20.90
2011,09,10,00,01,20.90
2011,09,10,00,02,20.80
2011,09,10,00,03,20.80
2011,09,10,00,04,20.80
2011,09,10,00,05,20.80
2011,09,10,00,06,20.80
2011,09,10,00,07,20.70
2011,09,10,00,08,20.70
2011,09,10,00,09,20.70
2011,09,10,00,10,20.70
2011,09,10,00,11,20.70
2011,09,10,00,12,20.70
2011,09,10,00,13,20.60
2011,09,10,00,14,20.60
2011,09,10,00,15,20.60
2011,09,10,00,16,20.50
2011,09,10,00,17,20.50
2011,09,10,00,18,20.40
2011,09,10,00,19,20.40
2011,09,10,00,20,20.40
2011,09,10,00,21,20.40
2011,09,10,00,22,20.30
2011,09,10,00,23,20.30
2011,09,10,00,24,20.30
2011,09,10,00,25,20.30
2011,09,10,00,26,20.20
2011,09,10,00,27,20.20
2011,09,10,00,28,20.20
2011,09,10,00,29,20.20
2011,09,10,00,30,20.20
2011,09,10,00,31,20.20
2011,09,10,00,32,20.20
2011,09,10,00,33,20.20
2011,09,10,00,34,20.20
2011,09,10,00,35,20.20
2011,09,10,00,36,20.10
2011,09,10,00,37,20.10
2011,09,10,00,38,20.10
2011,09,10,00,39,20.10
2011,09,10,00,40,20.10
2011,09,10,00,41,20.10
2011,09,10,00,42,20.10
2011,09,10,00,43,20.10
2011,09,10,00,44,20.00
2011,09,10,00,45,20.00
2011,09,10,00,46,20.00
2011,09,10,00,47,19.90
2011,09,10,00,48,19.90
2011,09,10,00,49,19.90
2011,09,10,00,50,19.90
2011,09,10,00,51,19.90
2011,09,10,00,52,19.90
2011,09,10,00,53,19.90
2011,09,10,00,54,19.90
2011,09,10,00,55,19.90
2011,09,10,00,56,19.90
2011,09,10,00,57,19.90
2011,09,10,00,58,19.90
2011,09,10,00,59,19.90
2011,09,10,01,00,19.80
2011,09,10,01,01,19.80
2011,09,10,01,02,19.90
2011,09,10,01,03,19.90
2011,09,10,01,04,19.90
2011,09,10,01,05,19.90
2011,09,10,01,06,19.90
2011,09,10,01,07,19.90
2011,09,10,01,08,20.00
2011,09,10,01,09,20.00
2011,09,10,01,10,20.00
2011,09,10,01,11,20.00
2011,09,10,01,12,20.00
2011,09,10,01,13,20.10
2011,09,10,01,14,20.00
2011,09,10,01,15,20.00
2011,09,10,01,16,20.10
2011,09,10,01,17,20.00
2011,09,10,01,18,20.10
2011,09,10,01,19,20.00
2011,09,10,01,20,20.10
2011,09,10,01,21,20.00
2011,09,10,01,22,20.00
2011,09,10,01,23,20.00
2011,09,10,01,24,20.00
2011,09,10,01,25,20.00
2011,09,10,01,26,19.90
2011,09,10,01,27,19.90
2011,09,10,01,28,19.90
2011,09,10,01,29,19.90
2011,09,10,01,30,19.90
2011,09,10,01,31,19.90
2011,09,10,01,32,19.90
2011,09,10,01,33,19.90
2011,09,10,01,34,19.90
2011,09,10,01,35,19.90
2011,09,10,01,36,19.80
2011,09,10,01,37,19.80
2011,09,10,01,38,19.80
2011,09,10,01,39,19.80
2011,09,10,01,40,19.80
2011,09,10,01,41,19.80
2011,09,10,01,42,19.80
2011,09,10,01,43,19.80
2011,09,10,01,44,19.80
2011,09,10,01,45,19.80
2011,09,10,01,46,19.80
2011,09,10,01,47,19.80
2011,09,10,01,48,19.70
2011,09,10,01,49,19.70
2011,09,10,01,50,19.70
2011,09,10,01,51,19.70
2011,09,10,01,52,19.70
2011,09,10,01,53,19.70
2011,09,10,01,54,19.70
2011,09,10,01,55,19.70
2011,09,10,01,56,19.70
2011,09,10,01,57,19.70
2011,09,10,01,58,19.70
2011,09,10,01,59,19.70
2011,09,10,02,00,19.70
2011,09,10,02,01,19.70
2011,09,10,02,02,19.70
2011,09,10,02,03,19.60
2011,09,10,02,04,19.60
2011,09,10,02,05,19.60
2011,09,10,02,06,19.60
2011,09,10,02,07,19.60
2011,09,10,02,08,19.60
2011,09,10,02,09,19.50
2011,09,10,02,10,19.50
2011,09,10,02,11,19.50
2011,09,10,02,12,19.50
2011,09,10,02,13,19.40
2011,09,10,02,14,19.40
2011,09,10,02,15,19.40
2011,09,10,02,16,19.40
2011,09,10,02,17,19.40
2011,09,10,02,18,19.40
2011,09,10,02,19,19.40
2011,09,10,02,20,19.30
2011,09,10,02,21,19.30
2011,09,10,02,22,19.30
2011,09,10,02,23,19.30
2011,09,10,02,24,19.30
2011,09,10,02,25,19.30
2011,09,10,02,26,19.30
2011,09,10,02,27,19.30
2011,09,10,02,28,19.30
2011,09,10,02,29,19.30
2011,09,10,02,30,19.30
2011,09,10,02,31,19.30
2011,09,10,02,32,19.30
2011,09,10,02,33,19.30
2011,09,10,02,34,19.30
2011,09,10,02,35,19.30
2011,09,10,02,36,19.30
2011,09,10,02,37,19.30
2011,09,10,02,38,19.30
2011,09,10,02,39,19.30
2011,09,10,02,40,19.30
2011,09,10,02,41,19.30
2011,09,10,02,42,19.30
2011,09,10,02,43,19.20
2011,09,10,02,44,19.20
2011,09,10,02,45,19.20
2011,09,10,02,46,19.20
2011,09,10,02,47,19.20
2011,09,10,02,48,19.20
2011,09,10,02,49,19.20
2011,09,10,02,50,19.20
2011,09,10,02,51,19.20
2011,09,10,02,52,19.20
2011,09,10,02,53,19.20
2011,09,10,02,54,19.20
2011,09,10,02,55,19.20
2011,09,10,02,56,19.20
2011,09,10,02,57,19.10
2011,09,10,02,58,19.10
2011,09,10,02,59,19.20
2011,09,10,03,00,19.20
2011,09,10,03,01,19.20
2011,09,10,03,02,19.20
2011,09,10,03,03,19.20
2011,09,10,03,04,19.30
2011,09,10,03,05,19.30
2011,09,10,03,06,19.30
2011,09,10,03,07,19.30
2011,09,10,03,08,19.30
2011,09,10,03,09,19.30
2011,09,10,03,10,19.30
2011,09,10,03,11,19.30
2011,09,10,03,12,19.40
2011,09,10,03,13,19.40
2011,09,10,03,14,19.40
2011,09,10,03,15,19.40
2011,09,10,03,16,19.40
2011,09,10,03,17,19.40
2011,09,10,03,18,19.40
2011,09,10,03,19,19.40
2011,09,10,03,20,19.40
2011,09,10,03,21,19.40
2011,09,10,03,22,19.40
2011,09,10,03,23,19.40
2011,09,10,03,24,19.40
2011,09,10,03,25,19.30
2011,09,10,03,26,19.30
2011,09,10,03,27,19.30
2011,09,10,03,28,19.30
2011,09,10,03,29,19.30
2011,09,10,03,30,19.30
2011,09,10,03,31,19.30
2011,09,10,03,32,19.30
2011,09,10,03,33,19.30
2011,09,10,03,34,19.30
2011,09,10,03,35,19.30
2011,09,10,03,36,19.30
2011,09,10,03,37,19.30
2011,09,10,03,38,19.30
2011,09,10,03,39,19.30
2011,09,10,03,40,19.30
2011,09,10,03,41,19.30
2011,09,10,03,42,19.30
2011,09,10,03,43,19.30
2011,09,10,03,44,19.30
2011,09,10,03,45,19.30
2011,09,10,03,46,19.30
2011,09,10,03,47,19.30
2011,09,10,03,48,19.30
2011,09,10,03,49,19.30
2011,09,10,03,50,19.30
2011,09,10,03,51,19.30
2011,09,10,03,52,19.30
2011,09,10,03,53,19.30
2011,09,10,03,54,19.30
2011,09,10,03,55,19.20
2011,09,10,03,56,19.20
2011,09,10,03,57,19.20
2011,09,10,03,58,19.20
2011,09,10,03,59,19.20
2011,09,10,04,00,19.20
2011,09,10,04,01,19.20
2011,09,10,04,02,19.20
2011,09,10,04,03,19.20
2011,09,10,04,04,19.20
2011,09,10,04,05,19.20
2011,09,10,04,06,19.20
2011,09,10,04,07,19.20
2011,09,10,04,08,19.10
2011,09,10,04,09,19.10
2011,09,10,04,10,19.10
2011,09,10,04,11,19.10
2011,09,10,04,12,19.10
2011,09,10,04,13,19.10
2011,09,10,04,14,19.10
2011,09,10,04,15,19.10
2011,09,10,04,16,19.10
2011,09,10,04,17,19.10
2011,09,10,04,18,19.10
2011,09,10,04,19,19.10
2011,09,10,04,20,19.10
2011,09,10,04,21,19.10
2011,09,10,04,22,19.10
2011,09,10,04,23,19.10
2011,09,10,04,24,19.00
2011,09,10,04,25,19.00
2011,09,10,04,26,19.00
2011,09,10,04,27,19.00
2011,09,10,04,28,19.00
2011,09,10,04,29,19.00
2011,09,10,04,30,19.00
2011,09,10,04,31,19.00
2011,09,10,04,32,19.00
2011,09,10,04,33,19.00
2011,09,10,04,34,19.00
2011,09,10,04,35,19.00
2011,09,10,04,36,19.00
2011,09,10,04,37,19.00
2011,09,10,04,38,19.00
2011,09,10,04,39,19.00
2011,09,10,04,40,19.00
2011,09,10,04,41,19.00
2011,09,10,04,42,18.90
2011,09,10,04,43,18.90
2011,09,10,04,44,18.90
2011,09,10,04,45,18.90
2011,09,10,04,46,18.90
2011,09,10,04,47,18.90
2011,09,10,04,48,18.90
2011,09,10,04,49,18.80
2011,09,10,04,50,18.80
2011,09,10,04,51,18.80
2011,09,10,04,52,18.80
2011,09,10,04,53,18.80
2011,09,10,04,54,18.80
2011,09,10,04,55,18.80
2011,09,10,04,56,18.80
2011,09,10,04,57,18.80
2011,09,10,04,58,18.70
2011,09,10,04,59,18.70
2011,09,10,05,00,18.70
2011,09,10,05,01,18.70
2011,09,10,05,02,18.70
2011,09,10,05,03,18.70
2011,09,10,05,04,18.70
2011,09,10,05,05,18.70
2011,09,10,05,06,18.60
2011,09,10,05,07,18.60
2011,09,10,05,08,18.60
2011,09,10,05,09,18.60
2011,09,10,05,10,18.60
2011,09,10,05,11,18.50
2011,09,10,05,12,18.50
2011,09,10,05,13,18.40
2011,09,10,05,14,18.40
2011,09,10,05,15,18.40
2011,09,10,05,16,18.40
2011,09,10,05,17,18.40
2011,09,10,05,18,18.30
2011,09,10,05,19,18.30
2011,09,10,05,20,18.30
2011,09,10,05,21,18.30
2011,09,10,05,22,18.30
2011,09,10,05,23,18.30
2011,09,10,05,24,18.30
2011,09,10,05,25,18.30
2011,09,10,05,26,18.30
2011,09,10,05,27,18.30
2011,09,10,05,28,18.30
2011,09,10,05,29,18.30
2011,09,10,05,30,18.30
2011,09,10,05,31,18.40
2011,09,10,05,32,18.40
2011,09,10,05,33,18.40
2011,09,10,05,34,18.40
2011,09,10,05,35,18.40
2011,09,10,05,36,18.40
2011,09,10,05,37,18.40
2011,09,10,05,38,18.40
2011,09,10,05,39,18.40
2011,09,10,05,40,18.40
2011,09,10,05,41,18.40
2011,09,10,05,42,18.40
2011,09,10,05,43,18.40
2011,09,10,05,44,18.40
2011,09,10,05,45,18.30
2011,09,10,05,46,18.30
2011,09,10,05,47,18.30
2011,09,10,05,48,18.30
2011,09,10,05,49,18.30
2011,09,10,05,50,18.30
2011,09,10,05,51,18.30
2011,09,10,05,52,18.20
2011,09,10,05,53,18.20
2011,09,10,05,54,18.20
2011,09,10,05,55,18.20
2011,09,10,05,56,18.20
2011,09,10,05,57,18.10
2011,09,10,05,58,18.10
2011,09,10,05,59,18.10
2011,09,10,06,00,18.10
2011,09,10,06,01,18.00
2011,09,10,06,02,18.00
2011,09,10,06,03,18.00
2011,09,10,06,04,18.00
2011,09,10,06,05,17.90
2011,09,10,06,06,17.90
2011,09,10,06,07,17.90
2011,09,10,06,08,17.90
2011,09,10,06,09,17.90
2011,09,10,06,10,17.90
2011,09,10,06,11,17.90
2011,09,10,06,12,17.90
2011,09,10,06,13,17.90
2011,09,10,06,14,18.00
2011,09,10,06,15,18.00
2011,09,10,06,16,18.00
2011,09,10,06,17,18.00
2011,09,10,06,18,18.10
2011,09,10,06,19,18.10
2011,09,10,06,20,18.10
2011,09,10,06,21,18.10
2011,09,10,06,22,18.10
2011,09,10,06,23,18.10
2011,09,10,06,24,18.10
2011,09,10,06,25,18.10
2011,09,10,06,26,18.10
2011,09,10,06,27,18.10
2011,09,10,06,28,18.10
2011,09,10,06,29,18.00
2011,09,10,06,30,18.00
2011,09,10,06,31,18.00
2011,09,10,06,32,18.00
2011,09,10,06,33,18.00
2011,09,10,06,34,17.90
2011,09,10,06,35,17.90
2011,09,10,06,36,17.90
2011,09,10,06,37,17.90
2011,09,10,06,38,17.90
2011,09,10,06,39,17.90
2011,09,10,06,40,17.90
2011,09,10,06,41,17.90
2011,09,10,06,42,17.90
2011,09,10,06,43,17.90
2011,09,10,06,44,17.90
2011,09,10,06,45,17.90
2011,09,10,06,46,18.00
2011,09,10,06,47,18.00
2011,09,10,06,48,18.00
2011,09,10,06,49,18.00
2011,09,10,06,50,18.00
2011,09,10,06,51,18.00
2011,09,10,06,52,18.00
2011,09,10,06,53,18.00
2011,09,10,06,54,17.90
2011,09,10,06,55,17.90
2011,09,10,06,56,17.90
2011,09,10,06,57,18.00
2011,09,10,06,58,18.00
2011,09,10,06,59,18.00
2011,09,10,07,00,18.00
2011,09,10,07,01,18.00
2011,09,10,07,02,18.10
2011,09,10,07,03,18.10
2011,09,10,07,04,18.10
2011,09,10,07,05,18.10
2011,09,10,07,06,18.10
2011,09,10,07,07,18.10
2011,09,10,07,08,18.20
2011,09,10,07,09,18.20
2011,09,10,07,10,18.20
2011,09,10,07,11,18.20
2011,09,10,07,12,18.20
2011,09,10,07,13,18.20
2011,09,10,07,14,18.20
2011,09,10,07,15,18.20
2011,09,10,07,16,18.20
2011,09,10,07,17,18.30
2011,09,10,07,18,18.30
2011,09,10,07,19,18.30
2011,09,10,07,20,18.30
2011,09,10,07,21,18.30
2011,09,10,07,22,18.30
2011,09,10,07,23,18.40
2011,09,10,07,24,18.40
2011,09,10,07,25,18.40
2011,09,10,07,26,18.40
2011,09,10,07,27,18.40
2011,09,10,07,28,18.40
2011,09,10,07,29,18.40
2011,09,10,07,30,18.50
2011,09,10,07,31,18.50
2011,09,10,07,32,18.50
2011,09,10,07,33,18.50
2011,09,10,07,34,18.50
2011,09,10,07,35,18.50
2011,09,10,07,36,18.60
2011,09,10,07,37,18.60
2011,09,10,07,38,18.60
2011,09,10,07,39,18.60
2011,09,10,07,40,18.60
2011,09,10,07,41,18.60
2011,09,10,07,42,18.60
2011,09,10,07,43,18.70
2011,09,10,07,44,18.70
2011,09,10,07,45,18.70
2011,09,10,07,46,18.70
2011,09,10,07,47,18.70
2011,09,10,07,48,18.70
2011,09,10,07,49,18.70
2011,09,10,07,50,18.80
2011,09,10,07,51,18.80
2011,09,10,07,52,18.80
2011,09,10,07,53,18.80
2011,09,10,07,54,18.80
2011,09,10,07,55,18.80
2011,09,10,07,56,18.80
2011,09,10,07,57,18.90
2011,09,10,07,58,18.90
2011,09,10,07,59,18.90
2011,09,10,08,00,18.90
2011,09,10,08,01,18.90
2011,09,10,08,02,18.90
2011,09,10,08,03,19.00
2011,09,10,08,04,19.00
2011,09,10,08,05,19.00
2011,09,10,08,06,19.10
2011,09,10,08,07,19.10
2011,09,10,08,08,19.10
2011,09,10,08,09,19.10
2011,09,10,08,10,19.10
2011,09,10,08,11,19.10
2011,09,10,08,12,19.20
2011,09,10,08,13,19.20
2011,09,10,08,14,19.20
2011,09,10,08,15,19.20
2011,09,10,08,16,19.20
2011,09,10,08,17,19.20
2011,09,10,08,18,19.20
2011,09,10,08,19,19.30
2011,09,10,08,20,19.30
2011,09,10,08,21,19.30
2011,09,10,08,22,19.30
2011,09,10,08,23,19.30
2011,09,10,08,24,19.30
2011,09,10,08,25,19.30
2011,09,10,08,26,19.30
2011,09,10,08,27,19.30
2011,09,10,08,28,19.30
2011,09,10,08,29,19.40
2011,09,10,08,30,19.40
2011,09,10,08,31,19.40
2011,09,10,08,32,19.40
2011,09,10,08,33,19.40
2011,09,10,08,34,19.50
2011,09,10,08,35,19.50
2011,09,10,08,36,19.60
2011,09,10,08,37,19.60
2011,09,10,08,38,19.60
2011,09,10,08,39,19.60
2011,09,10,08,40,19.60
2011,09,10,08,41,19.60
2011,09,10,08,42,19.60
2011,09,10,08,43,19.70
2011,09,10,08,44,19.70
2011,09,10,08,45,19.70
2011,09,10,08,46,19.70
2011,09,10,08,47,19.70
2011,09,10,08,48,19.70
2011,09,10,08,49,19.70
2011,09,10,08,50,19.70
2011,09,10,08,51,19.70
2011,09,10,08,52,19.70
2011,09,10,08,53,19.70
2011,09,10,08,54,19.70
2011,09,10,08,55,19.70
2011,09,10,08,56,19.70
2011,09,10,08,57,19.70
2011,09,10,08,58,19.70
2011,09,10,08,59,19.70
2011,09,10,09,00,19.70
2011,09,10,09,01,19.80
2011,09,10,09,02,19.80
2011,09,10,09,03,19.80
2011,09,10,09,04,19.80
2011,09,10,09,05,19.90
2011,09,10,09,06,19.90
2011,09,10,09,07,19.90
2011,09,10,09,08,19.90
2011,09,10,09,09,19.90
2011,09,10,09,10,19.80
2011,09,10,09,11,19.80
2011,09,10,09,12,19.80
2011,09,10,09,13,19.90
2011,09,10,09,14,19.90
2011,09,10,09,15,19.90
2011,09,10,09,16,19.80
2011,09,10,09,17,19.80
2011,09,10,09,18,19.80
2011,09,10,09,19,19.80
2011,09,10,09,20,19.90
2011,09,10,09,21,19.90
2011,09,10,09,22,19.90
2011,09,10,09,23,19.90
2011,09,10,09,24,19.90
2011,09,10,09,25,19.90
2011,09,10,09,26,19.90
2011,09,10,09,27,19.90
2011,09,10,09,28,19.90
2011,09,10,09,29,19.90
2011,09,10,09,30,19.90
2011,09,10,09,31,19.90
2011,09,10,09,32,19.80
2011,09,10,09,33,19.80
2011,09,10,09,34,19.80
2011,09,10,09,35,19.80
2011,09,10,09,36,19.80
2011,09,10,09,37,19.80
2011,09,10,09,38,19.80
2011,09,10,09,39,19.80
2011,09,10,09,40,19.70
2011,09,10,09,41,19.70
2011,09,10,09,42,19.70
2011,09,10,09,43,19.70
2011,09,10,09,44,19.70
2011,09,10,09,45,19.70
2011,09,10,09,46,19.70
2011,09,10,09,47,19.70
2011,09,10,09,48,19.70
2011,09,10,09,49,19.70
2011,09,10,09,50,19.70
2011,09,10,09,51,19.70
2011,09,10,09,52,19.70
2011,09,10,09,53,19.70
2011,09,10,09,54,19.70
2011,09,10,09,55,19.80
2011,09,10,09,56,19.80
2011,09,10,09,57,19.80
2011,09,10,09,58,19.80
2011,09,10,09,59,19.80
2011,09,10,10,00,19.80
2011,09,10,10,01,19.80
2011,09,10,10,02,19.80
2011,09,10,10,03,19.80
2011,09,10,10,04,19.80
2011,09,10,10,05,19.80
2011,09,10,10,06,19.80
2011,09,10,10,07,19.80
2011,09,10,10,08,19.80
2011,09,10,10,09,19.80
2011,09,10,10,10,19.80
2011,09,10,10,11,19.80
2011,09,10,10,12,19.80
2011,09,10,10,13,19.80
2011,09,10,10,14,19.80
2011,09,10,10,15,19.80
2011,09,10,10,16,19.70
2011,09,10,10,17,19.70
2011,09,10,10,18,19.70
2011,09,10,10,19,19.70
2011,09,10,10,20,19.80
2011,09,10,10,21,19.80
2011,09,10,10,22,19.80
2011,09,10,10,23,19.80
2011,09,10,10,24,19.90
2011,09,10,10,25,19.90
2011,09,10,10,26,20.00
2011,09,10,10,27,20.00
2011,09,10,10,28,20.10
2011,09,10,10,29,20.10
2011,09,10,10,30,20.00
2011,09,10,10,31,20.00
2011,09,10,10,32,20.00
2011,09,10,10,33,20.00
2011,09,10,10,34,20.00
2011,09,10,10,35,20.00
2011,09,10,10,36,20.00
2011,09,10,10,37,19.90
2011,09,10,10,38,19.90
2011,09,10,10,39,19.80
2011,09,10,10,40,19.80
2011,09,10,10,41,19.90
2011,09,10,10,42,19.90
2011,09,10,10,43,19.90
2011,09,10,10,44,19.90
2011,09,10,10,45,20.00
2011,09,10,10,46,20.00
2011,09,10,10,47,20.00
2011,09,10,10,48,19.90
2011,09,10,10,49,20.00
2011,09,10,10,50,20.00
2011,09,10,10,51,20.10
2011,09,10,10,52,20.10
2011,09,10,10,53,20.10
2011,09,10,10,54,20.10
2011,09,10,10,55,20.10
2011,09,10,10,56,20.10
2011,09,10,10,57,20.10
2011,09,10,10,58,20.10
2011,09,10,10,59,20.10
2011,09,10,11,00,20.20
2011,09,10,11,01,20.20
2011,09,10,11,02,20.20
2011,09,10,11,03,20.20
2011,09,10,11,04,20.20
2011,09,10,11,05,20.20
2011,09,10,11,06,20.20
2011,09,10,11,07,20.30
2011,09,10,11,08,20.30
2011,09,10,11,09,20.30
2011,09,10,11,10,20.40
2011,09,10,11,11,20.40
2011,09,10,11,12,20.40
2011,09,10,11,13,20.40
2011,09,10,11,14,20.50
2011,09,10,11,15,20.50
2011,09,10,11,16,20.40
2011,09,10,11,17,20.40
2011,09,10,11,18,20.40
2011,09,10,11,19,20.40
2011,09,10,11,20,20.40
2011,09,10,11,21,20.40
2011,09,10,11,22,20.50
2011,09,10,11,23,20.50
2011,09,10,11,24,20.60
2011,09,10,11,25,20.60
2011,09,10,11,26,20.60
2011,09,10,11,27,20.60
2011,09,10,11,28,20.60
2011,09,10,11,29,20.60
2011,09,10,11,30,20.60
2011,09,10,11,31,20.60
2011,09,10,11,32,20.60
2011,09,10,11,33,20.70
2011,09,10,11,34,20.70
2011,09,10,11,35,20.80
2011,09,10,11,36,20.80
2011,09,10,11,37,20.80
2011,09,10,11,38,20.80
2011,09,10,11,39,20.80
2011,09,10,11,40,20.80
2011,09,10,11,41,20.80
2011,09,10,11,42,20.80
2011,09,10,11,43,20.70
2011,09,10,11,44,20.70
2011,09,10,11,45,20.70
2011,09,10,11,46,20.70
2011,09,10,11,47,20.70
2011,09,10,11,48,20.70
2011,09,10,11,49,20.70
2011,09,10,11,50,20.70
2011,09,10,11,51,20.70
2011,09,10,11,52,20.80
2011,09,10,11,53,20.80
2011,09,10,11,54,20.80
2011,09,10,11,55,20.70
2011,09,10,11,56,20.60
2011,09,10,11,57,20.60
2011,09,10,11,58,20.60
2011,09,10,11,59,20.60
2011,09,10,12,00,20.60
2011,09,10,12,01,20.60
2011,09,10,12,02,20.70
2011,09,10,12,03,20.70
2011,09,10,12,04,20.70
2011,09,10,12,05,20.70
2011,09,10,12,06,20.70
2011,09,10,12,07,20.70
2011,09,10,12,08,20.70
2011,09,10,12,09,20.70
2011,09,10,12,10,20.70
2011,09,10,12,11,20.70
2011,09,10,12,12,20.70
2011,09,10,12,13,20.60
2011,09,10,12,14,20.60
2011,09,10,12,15,20.70
2011,09,10,12,16,20.70
2011,09,10,12,17,20.70
2011,09,10,12,18,20.70
2011,09,10,12,19,20.70
2011,09,10,12,20,20.70
2011,09,10,12,21,20.60
2011,09,10,12,22,20.70
2011,09,10,12,23,20.70
2011,09,10,12,24,20.70
2011,09,10,12,25,20.70
2011,09,10,12,26,20.70
2011,09,10,12,27,20.70
2011,09,10,12,28,20.70
2011,09,10,12,29,20.70
2011,09,10,12,30,20.70
2011,09,10,12,31,20.70
2011,09,10,12,32,20.70
2011,09,10,12,33,20.70
2011,09,10,12,34,20.80
2011,09,10,12,35,20.80
2011,09,10,12,36,20.80
2011,09,10,12,37,20.80
2011,09,10,12,38,20.70
2011,09,10,12,39,20.70
2011,09,10,12,40,20.70
2011,09,10,12,41,20.70
2011,09,10,12,42,20.80
2011,09,10,12,43,20.80
2011,09,10,12,44,20.80
2011,09,10,12,45,20.90
2011,09,10,12,46,20.90
2011,09,10,12,47,21.00
2011,09,10,12,48,21.00
2011,09,10,12,49,20.90
2011,09,10,12,50,20.90
2011,09,10,12,51,20.90
2011,09,10,12,52,20.90
2011,09,10,12,53,20.90
2011,09,10,12,54,20.90
2011,09,10,12,55,20.90
2011,09,10,12,56,20.90
2011,09,10,12,57,20.80
2011,09,10,12,58,20.80
2011,09,10,12,59,20.80
2011,09,10,13,00,20.80
2011,09,10,13,01,20.80
2011,09,10,13,02,20.80
2011,09,10,13,03,20.90
2011,09,10,13,04,20.90
2011,09,10,13,05,20.90
2011,09,10,13,06,21.00
2011,09,10,13,07,21.00
2011,09,10,13,08,21.10
2011,09,10,13,09,21.20
2011,09,10,13,10,21.30
2011,09,10,13,11,21.40
2011,09,10,13,12,21.40
2011,09,10,13,13,21.50
2011,09,10,13,14,21.60
2011,09,10,13,15,21.70
2011,09,10,13,16,21.80
2011,09,10,13,17,21.80
2011,09,10,13,18,21.90
2011,09,10,13,19,21.90
2011,09,10,13,20,21.80
2011,09,10,13,21,21.70
2011,09,10,13,22,21.60
2011,09,10,13,23,21.60
2011,09,10,13,24,21.60
2011,09,10,13,25,21.60
2011,09,10,13,26,21.50
2011,09,10,13,27,21.40
2011,09,10,13,28,21.30
2011,09,10,13,29,21.30
2011,09,10,13,30,21.30
2011,09,10,13,31,21.40
2011,09,10,13,32,21.40
2011,09,10,13,33,21.50
2011,09,10,13,34,21.60
2011,09,10,13,35,21.70
2011,09,10,13,36,21.70
2011,09,10,13,37,21.80
2011,09,10,13,38,21.80
2011,09,10,13,39,21.80
2011,09,10,13,40,21.90
2011,09,10,13,41,21.90
2011,09,10,13,42,22.00
2011,09,10,13,43,22.00
2011,09,10,13,44,22.00
2011,09,10,13,45,21.90
2011,09,10,13,46,21.90
2011,09,10,13,47,21.90
2011,09,10,13,48,21.80
2011,09,10,13,49,21.80
2011,09,10,13,50,21.90
2011,09,10,13,51,21.90
2011,09,10,13,52,21.90
2011,09,10,13,53,22.00
2011,09,10,13,54,22.10
2011,09,10,13,55,22.10
2011,09,10,13,56,22.10
2011,09,10,13,57,22.10
2011,09,10,13,58,22.10
2011,09,10,13,59,22.10
2011,09,10,14,00,22.00
2011,09,10,14,01,22.00
2011,09,10,14,02,21.90
2011,09,10,14,03,22.00
2011,09,10,14,04,22.10
2011,09,10,14,05,22.10
2011,09,10,14,06,22.20
2011,09,10,14,07,22.30
2011,09,10,14,08,22.30
2011,09,10,14,09,22.40
2011,09,10,14,10,22.40
2011,09,10,14,11,22.40
2011,09,10,14,12,22.40
2011,09,10,14,13,22.40
2011,09,10,14,14,22.40
2011,09,10,14,15,22.40
2011,09,10,14,16,22.40
2011,09,10,14,17,22.40
2011,09,10,14,18,22.40
2011,09,10,14,19,22.50
2011,09,10,14,20,22.50
2011,09,10,14,21,22.60
2011,09,10,14,22,22.60
2011,09,10,14,23,22.60
2011,09,10,14,24,22.60
2011,09,10,14,25,22.60
2011,09,10,14,26,22.60
2011,09,10,14,27,22.70
2011,09,10,14,28,22.70
2011,09,10,14,29,22.70
2011,09,10,14,30,22.80
2011,09,10,14,31,22.80
2011,09,10,14,32,22.90
2011,09,10,14,33,22.90
2011,09,10,14,34,23.00
2011,09,10,14,35,23.10
2011,09,10,14,36,23.10
2011,09,10,14,37,23.10
2011,09,10,14,38,23.10
2011,09,10,14,39,23.20
2011,09,10,14,40,23.20
2011,09,10,14,41,23.10
2011,09,10,14,42,23.10
2011,09,10,14,43,23.10
2011,09,10,14,44,23.10
2011,09,10,14,45,23.10
2011,09,10,14,46,23.20
2011,09,10,14,47,23.20
2011,09,10,14,48,23.20
2011,09,10,14,49,23.30
2011,09,10,14,50,23.30
2011,09,10,14,51,23.30
2011,09,10,14,52,23.20
2011,09,10,14,53,23.30
2011,09,10,14,54,23.30
2011,09,10,14,55,23.30
2011,09,10,14,56,23.40
2011,09,10,14,57,23.40
2011,09,10,14,58,23.30
2011,09,10,14,59,23.30
2011,09,10,15,00,23.30
2011,09,10,15,01,23.40
2011,09,10,15,02,23.40
2011,09,10,15,03,23.40
2011,09,10,15,04,23.50
2011,09,10,15,05,23.50
2011,09,10,15,06,23.50
2011,09,10,15,07,23.60
2011,09,10,15,08,23.60
2011,09,10,15,09,23.60
2011,09,10,15,10,23.60
2011,09,10,15,11,23.70
2011,09,10,15,12,23.70
2011,09,10,15,13,23.70
2011,09,10,15,14,23.60
2011,09,10,15,15,23.60
2011,09,10,15,16,23.60
2011,09,10,15,17,23.70
2011,09,10,15,18,23.70
2011,09,10,15,19,23.70
2011,09,10,15,20,23.80
2011,09,10,15,21,23.80
2011,09,10,15,22,23.80
2011,09,10,15,23,23.90
2011,09,10,15,24,23.90
2011,09,10,15,25,24.00
2011,09,10,15,26,24.10
2011,09,10,15,27,24.10
2011,09,10,15,28,24.20
2011,09,10,15,29,24.10
2011,09,10,15,30,24.00
2011,09,10,15,31,24.00
2011,09,10,15,32,23.90
2011,09,10,15,33,23.80
2011,09,10,15,34,23.70
2011,09,10,15,35,23.70
2011,09,10,15,36,23.70
2011,09,10,15,37,23.70
2011,09,10,15,38,23.60
2011,09,10,15,39,23.60
2011,09,10,15,40,23.60
2011,09,10,15,41,23.60
2011,09,10,15,42,23.60
2011,09,10,15,43,23.60
2011,09,10,15,44,23.60
2011,09,10,15,45,23.60
2011,09,10,15,46,23.60
2011,09,10,15,47,23.60
2011,09,10,15,48,23.60
2011,09,10,15,49,23.60
2011,09,10,15,50,23.60
2011,09,10,15,51,23.60
2011,09,10,15,52,23.60
2011,09,10,15,53,23.60
2011,09,10,15,54,23.60
2011,09,10,15,55,23.60
2011,09,10,15,56,23.60
2011,09,10,15,57,23.60
2011,09,10,15,58,23.60
2011,09,10,15,59,23.70
2011,09,10,16,00,23.70
2011,09,10,16,01,23.70
2011,09,10,16,02,23.80
2011,09,10,16,03,23.80
2011,09,10,16,04,23.80
2011,09,10,16,05,23.80
2011,09,10,16,06,23.80
2011,09,10,16,07,23.80
2011,09,10,16,08,23.80
2011,09,10,16,09,23.80
2011,09,10,16,10,23.80
2011,09,10,16,11,23.80
2011,09,10,16,12,23.90
2011,09,10,16,13,23.90
2011,09,10,16,14,23.90
2011,09,10,16,15,24.00
2011,09,10,16,16,24.00
2011,09,10,16,17,24.10
2011,09,10,16,18,24.10
2011,09,10,16,19,24.10
2011,09,10,16,20,24.10
2011,09,10,16,21,24.10
2011,09,10,16,22,24.10
2011,09,10,16,23,24.10
2011,09,10,16,24,24.10
2011,09,10,16,25,24.10
2011,09,10,16,26,24.10
2011,09,10,16,27,24.20
2011,09,10,16,28,24.20
2011,09,10,16,29,24.30
2011,09,10,16,30,24.30
2011,09,10,16,31,24.40
2011,09,10,16,32,24.40
2011,09,10,16,33,24.40
2011,09,10,16,34,24.40
2011,09,10,16,35,24.40
2011,09,10,16,36,24.50
2011,09,10,16,37,24.50
2011,09,10,16,38,24.50
2011,09,10,16,39,24.50
2011,09,10,16,40,24.50
2011,09,10,16,41,24.50
2011,09,10,16,42,24.60
2011,09,10,16,43,24.60
2011,09,10,16,44,24.50
2011,09,10,16,45,24.50
2011,09,10,16,46,24.50
2011,09,10,16,47,24.50
2011,09,10,16,48,24.50
2011,09,10,16,49,24.50
2011,09,10,16,50,24.50
2011,09,10,16,51,24.40
2011,09,10,16,52,24.40
2011,09,10,16,53,24.40
2011,09,10,16,54,24.30
2011,09,10,16,55,24.30
2011,09,10,16,56,24.30
2011,09,10,16,57,24.20
2011,09,10,16,58,24.20
2011,09,10,16,59,24.20
2011,09,10,17,00,24.20
2011,09,10,17,01,24.20
2011,09,10,17,02,24.20
2011,09,10,17,03,24.20
2011,09,10,17,04,24.20
2011,09,10,17,05,24.20
2011,09,10,17,06,24.20
2011,09,10,17,07,24.20
2011,09,10,17,08,24.20
2011,09,10,17,09,24.20
2011,09,10,17,10,24.20
2011,09,10,17,11,24.20
2011,09,10,17,12,24.20
2011,09,10,17,13,24.20
2011,09,10,17,14,24.20
2011,09,10,17,15,24.20
2011,09,10,17,16,24.20
2011,09,10,17,17,24.20
2011,09,10,17,18,24.20
2011,09,10,17,19,24.20